sat.trackr.live / text

‹ back to catalog

STARLINK-4194

NORAD 53000 · 2022-076Q

PAYLOAD ACTIVE UNKNOWN

§ Identity

Operator
Country
US
Launch date
2022-07-07
Launch site
AFETR
Launch vehicle
Mass (kg)
RCS (m²)

Purposes: comms

External: N2YO · Heavens-Above · Gunter

§ Orbital elements

Epoch: 2026-05-25T04:43:12.258624Z

Period
95.44 min
Inclination
53.2134°
Eccentricity
0.0001399
Mean motion
15.08835174 rev/d
Perigee alt
538.8 km
Apogee alt
540.7 km
Semi-major
6,917.9 km
B*
2.8430e-5
RAAN
110.6672°
Arg perigee
76.6665°
Mean anomaly
283.4483°
Rev number
21,439

§ Raw data

STARLINK-41941 53000U 22076Q   26145.19666966  .00000165  00000+0  28430-4 0  99942 53000  53.2134 110.6672 0001399  76.6665 283.4483 15.08835174214392

JSON: /api/v1/satellites/53000 · /tle

For live sub-satellite position, see the globe view (requires WebGL).

§ Visibility from observer

Set your observer location to see the next 7 days of passes ≥ 10°. The values pass through the URL so the page stays shareable.

No JS? Fill the form by hand. The geolocation button needs JavaScript.